Regional Weather Roundup
Issued by NWS

Home | Current Version | Previous Version | Text Only | Print | Product List | Glossary On
Versions: 1 2 3 4 5 6 7 8 9 10 11 12 13 14 15 16 17 18 19 20 21 22 23 24 25 26 27 28 29 30 31 32 33 34 35 36 37 38 39 40 41 42 43 44 45 46 47 48 49 50
000
ASUS42 KFFC 110803
RWRGA
WEATHER ROUNDUP FOR GEORGIA
NATIONAL WEATHER SERVICE PEACHTREE CITY GA
400 AM EDT FRI JUL 11 2014

NOTE: "FAIR" INDICATES FEW OR NO CLOUDS BELOW 12,000 FEET WITH NO
SIGNIFICANT WEATHER AND/OR OBSTRUCTIONS TO VISIBILITY.

* = USE WITH CAUTION. THE STATIONS MARKED WITH AN ASTERISK MAY NOT
REPORT WEATHER SUCH AS PRECIPITATION, FOG, OR THUNDER AND ARE NOT
QUALITY CONTROLLED BY NWS.

THE REMARK "TC" DENOTES TEMPERATURE READING IN DEGREES CELSIUS.

GAZ001>058-110900-
NORTH GEORGIA

CITY           SKY/WX    TMP DP  RH WIND       PRES   REMARKS
ATLANTA        MOCLDY    72  69  90 CALM      30.10S
ATHENS         PTCLDY    70  69  97 CALM      30.11S
CHAMBLEE       PTCLDY    73  68  84 CALM      30.11S
PEACHTREE CITY PTCLDY    69  68  96 CALM      30.11F
ROME           PTCLDY    70  68  93 CALM      30.09S
WEST ATLANTA   PTCLDY    71  69  93 CALM      30.10S
GAINESVILLE    PTCLDY    71  69  93 NE3       30.14F
CARTERSVILLE   PTCLDY    70  68  93 CALM      30.10S FOG


CITY           SKY/WX    TMP DP  RH WIND       PRES   REMARKS
DALTON*        PTCLDY    68  68 100 CALM      30.10S
$$

GAZ059>098-102>109-110900-
CENTRAL GEORGIA

CITY           SKY/WX    TMP DP  RH WIND       PRES   REMARKS
AUGUSTA-BUSH   MOCLDY    72  70  93 SE3       30.09S
AUGUSTA-DANIEL MOCLDY    75  71  87 CALM      30.10F
COLUMBUS       PTCLDY    73  71  93 CALM      30.09S
MACON          NOT AVBL
ROBINS AFB     CLOUDY    71  71  99 S5        30.09F


CITY           SKY/WX    TMP DP  RH WIND       PRES   REMARKS
LAGRANGE*      CLEAR     72  70  95 CALM      30.10S
SYLVANIA*      MOCLDY    73  73 100 CALM      30.11S
MILLEDGEVILLE* CLOUDY    70 N/A N/A CALM      30.10S FOG
$$

GAZ099>101-110>166-110900-
SOUTH GEORGIA

CITY           SKY/WX    TMP DP  RH WIND       PRES   REMARKS
SAVANNAH       MOCLDY    75  72  90 CALM      30.10F
VALDOSTA       PTCLDY    75  70  84 CALM      30.09F
ALMA           MOCLDY    71  69  93 CALM      30.10F FOG
ST SIMONS      PTCLDY    76  73  91 SW5       30.10S
FT STEWART     MOCLDY    73  72  96 CALM      30.09F
ALBANY         CLOUDY    72  72 100 CALM      30.11S FOG
HUNTER AFB     MOCLDY    74  73  99 CALM      30.08F
BRUNSWICK      PTCLDY    73  70  88 CALM      30.11S


CITY           SKY/WX    TMP DP  RH WIND       PRES   REMARKS
BAINBRIDGE*    MOCLDY    77  73  88 CALM      30.09S
MOULTRIE*      PTCLDY    73  73 100 CALM      30.10S
VIDALIA*       HVY RAIN  72  72 100 CALM      30.10F
WAYCROSS*      MOCLDY    75  74  96 CALM      30.10F
DOUGLAS*       MOCLDY    73  72  94 CALM      30.11F
$$



USA.gov is the U.S. government's official web portal to all federal, state and local government web resources and services.